Home   Weather   Tofol   Past weeks

Flag for Micronesia Past Weather in Tofol, Kosrae, Micronesia — Yesterday and Last 2 Weeks

Now
78 °F

Mostly cloudy.


Feels Like: 82 °F
Forecast: 83 / 89 °F
Wind: 5 mph from Southeast

Location: Pohnpei

Current Time: Sep 25, 2016 at 11:23:12 PM

Latest Report: Sep 25, 2016 at 10:57 PM


Visibility: 15 mi

Pressure: 29.86 "Hg

Humidity: 94%

Dew Point: 77 °F

Location of TofolLocation

Past Weather in Tofol — Graph

°F

Tofol Temperature Yesterday

Maximum temperature yesterday: 87 °F (at 9:50 AM)
Minimum temperature yesterday: 75 °F (at 3:53 AM)
Average temperature yesterday: 79 °F

High & Low Weather Summary for the Past Weeks

 TemperatureHumidityPressure
High92 °F (Sep 19, 2:51 PM)100% (Sep 11, 4:53 AM)29.96 "Hg (Sep 11, 4:53 AM)
Low73 °F (Sep 18, 1:53 AM)59% (Sep 14, 11:50 AM)29.74 "Hg (Sep 24, 3:53 PM)
Average81 °F85%29.84 "Hg
* Reported Sep 10 9:54 PM — Sep 25 9:54 PM, Tofol, Weather by CustomWeather, © 2016

Note: Actual official high and low records may vary slightly from our data, if they occured in-between our weather recording intervals... More about our weather records

Advertising

Tofol Weather History for the Previous 24 Hours

Scroll right to see more
 ConditionsComfort  
Time TempWeatherWind HumidityBarometerVisibility
9:54 PM
Sun, Sep 25
78 °FMostly cloudy.2 mph94%29.87 "Hg15 mi
8:54 PM79 °FPartly cloudy.3 mph91%29.85 "Hg15 mi
7:52 PM79 °FSprinkles. Mostly cloudy.8 mph91%29.85 "Hg15 mi
6:52 PM83 °FMostly cloudy.9 mph83%29.82 "Hg15 mi
5:51 PM86 °FMore clouds than sun.6 mph71%29.78 "Hg15 mi
4:53 PM86 °FOvercast.6 mph61%29.77 "Hg15 mi
3:58 PM87 °FMore clouds than sun.5 mph70%29.75 "Hg15 mi
2:52 PM89 °FBroken clouds.5 mph67%29.76 "Hg15 mi
1:51 PM89 °FBroken clouds.5 mph67%29.77 "Hg15 mi
12:51 PM89 °FScattered clouds.6 mph71%29.79 "Hg15 mi
11:53 AM89 °FPassing clouds.5 mph69%29.81 "Hg15 mi
10:52 AM87 °FScattered clouds.2 mph73%29.85 "Hg15 mi
9:52 AM86 °FPartly sunny.2 mph72%29.86 "Hg15 mi
8:52 AM87 °FScattered clouds.2 mph78%29.85 "Hg15 mi
7:51 AM82 °FPartly sunny.3 mph87%29.83 "Hg15 mi
6:52 AM77 °FMostly cloudy.3 mph98%29.81 "Hg15 mi
5:53 AM76 °FOvercast.5 mph98%29.79 "Hg15 mi
4:53 AM76 °FMostly cloudy.No wind98%29.78 "Hg15 mi
3:51 AM76 °FMostly cloudy.3 mph97%29.78 "Hg15 mi
2:50 AM77 °FMostly cloudy.6 mph96%29.79 "Hg15 mi
1:54 AM77 °FMostly cloudy.3 mph96%29.79 "Hg15 mi
12:51 AM76 °FMostly cloudy.5 mph96%29.80 "Hg15 mi
11:52 PM
Sat, Sep 24
77 °FMostly cloudy.3 mph95%29.81 "Hg15 mi
Weather by CustomWeather, © 2016

See weather overviewHow to use our weather pages